Lumberton Municipal Airport
KLBT : now visible

Airfield :











YOU CAN JOIN US ON...

 
LOGIN :

Register | Disclaimer

   EN    FR    IT 

 









Legend :    VFR   Marginal VFR   IFR   Intensive IFR   Very Intensive IFR
Visi :
Ceiling :
>= 8 km
>= 3000ft
5 to 8 km
1000 to 3000 ft
1500m to 5 km
500 to 1000 ft
800 to 1500m
200 to 500 ft
< 800m
< 200 ft
Symbols :   Thunderstorms  Fog  Heavy snow  Heavy precipitations  Wind > 20 kt






- Airport Elevation : 126 ft


KLBT - Lumberton Municipal

METAR N/A
TAF KLBT
Valid from the 20 at 06:00 until the 21 at 06:00 UTC


200527Z 2006/2106 09010G17KT 3SM +SHRA BR OVC003
FM200800 10009KT 3SM +SHRA OVC006
FM201400 23009KT 6SM -SHRA OVC006
FM201600 27010G17KT P6SM OVC007
FM202200 32009KT P6SM BKN020 AMD NOT SKED



MET'MAP, your aeronautical weather chart ! - Copyright ORBIFLY December 2007 - Disclaimer

ORBIFLY MET'MAP TEAM :

Programming & Development : Alexandra Zaïnal
Concept & Development : Baudouin d'Aumeries
Co-Development & Prog : Marc-Olivier Méhu
Technical & hardware support : Manuel Goepfert

Contact : metmap@orbifly.com




SOURCES & CREDITS :

   NOAA       Earth
Advisory